Effective Sunday, March 17, 2024, the National Weather Service National Data Buoy Center will discontinue its Dial-A-Buoy Interactive Voice Response system. For more information, see Service Change Notice 24-06 (PDF).

Station SDIA2 - South Douglas, AK Image indicating link to RSS feed of recent meteorological observations for station SDIA2


Conditions at SDIA2 as of
(9:26 pm AKST on 03/03/2024)
0626 GMT on 03/04/2024:
     

Click on the graph icon in the table below to see a time series plot of the last five days of that observation.

5-day plot - Wind Direction Wind Direction (WDIR):SSE ( 150 deg true )
5-day plot - Wind Speed Wind Speed (WSPD): 9.9 kts
5-day plot - Wind Gust Wind Gust (GST): 17.1 kts
5-day plot - Atmospheric Pressure Atmospheric Pressure (PRES):30.13 in
5-day plot - Air Temperature Air Temperature (ATMP): 19.0 °F
5-day plot - Dew Point Dew Point (DEWP): 1.9 °F
5-day plot - Wind Chill Wind Chill (CHILL): 6.8 °F
5-day plot - Wind Speed at 10 Meters Wind Speed at 10 meters (WSPD10M): 11.7 kts
5-day plot - Wind Speed at 20 Meters Wind Speed at 20 meters (WSPD20M): 13.6 kts
5-day plot -  Wind Speed, Wind Gust and Atmospheric Pressure Combined plot of Wind Speed, Gust, and Air Pressure
Supplemental Measurements
Previous observations
TIME
(AKST)
5-day plot - Wind Direction
WDIR
 
5-day plot - Wind Speed
WSPD
kts
5-day plot - Wind Gust
GST
kts
5-day plot - Wave Height
WVHT
ft
5-day plot - Dominant Wave Period
DPD
sec
5-day plot - Average Wave Period
APD
sec
5-day plot - Mean Wave Direction
MWD
 
5-day plot - Atmospheric Pressure
PRES
in
5-day plot - Pressure Tendency
PTDY
in
5-day plot - Air Temperature
ATMP
°F
5-day plot - Water Temperature
WTMP
°F
5-day plot - Dew Point
DEWP
°F
5-day plot - Salinity
SAL
psu
5-day plot - Visibility
VIS
nmi
5-day plot - Tide (above MLLW)
TIDE
ft
2024-03-03 09:06 pm SE 11.1 14.0----30.14- 19.0- -0.0---
2024-03-03 08:46 pmENE 14.0 22.9----30.14- 19.0- 3.0---
2024-03-03 08:26 pm E 18.1 18.1----30.14- 19.0- 1.9---
2024-03-03 08:06 pmENE 11.1 15.0----30.14- 19.0- 3.0---
2024-03-03 07:26 pmENE 19.0 24.1----30.16- 19.0- 3.0---
2024-03-03 07:06 pmENE 22.0 22.9----30.16- 19.0- 1.9---
2024-03-03 06:46 pmENE 22.9 22.9----30.15- 19.9- 3.0---
2024-03-03 06:26 pmENE 18.1 20.0----30.14- 19.9- 3.0---
2024-03-03 06:06 pm E 24.1 24.1----30.15- 18.0- 3.0---
2024-03-03 05:46 pmESE 8.9 21.0----30.14- 18.0- -0.0---
2024-03-03 05:26 pm E 17.1 20.0----30.15- 18.0- 1.9---
2024-03-03 05:06 pm E 15.9 20.0----30.14- 18.0- 1.9---
2024-03-03 04:46 pm E 8.9 22.0----30.14- 18.0- -0.0---
2024-03-03 04:26 pmENE 17.1 19.0----30.15- 18.0- -0.0---
2024-03-03 04:06 pmENE 11.1 20.0----30.14- 18.0- -0.0---
2024-03-03 03:46 pm E 17.1 20.0----30.14- 18.0- 1.9---
2024-03-03 03:26 pmENE 9.9 20.0----30.14- 19.0- -0.0---
2024-03-03 03:06 pm E 20.0 20.0----30.13- 19.0- 3.0---
2024-03-03 02:46 pmENE 14.0 22.0----30.15- 18.0- -0.9---
2024-03-03 02:26 pmNNW 5.1 8.9----30.14- 18.0- -2.0---
2024-03-03 02:06 pm N 5.1 8.0----30.13- 18.0- -0.9---
2024-03-03 01:46 pm N 6.0 17.1----30.12- 18.0- -0.9---
2024-03-03 01:26 pmSSW 11.1 12.0----30.13- 18.0- -2.0---
2024-03-03 01:06 pm N 11.1 11.1----30.13- 17.1- -0.9---
2024-03-03 12:46 pm N 12.0 19.0----30.13- 16.0- -2.0---
2024-03-03 12:26 pmNNW 20.0 20.0----30.13- 16.0- -0.9---
2024-03-03 12:06 pm W 4.1 9.9----30.14- 17.1- -0.9---
2024-03-03 11:46 am NW 7.0 15.0----30.15- 15.1- -2.9---
2024-03-03 11:26 am N 11.1 17.1----30.16- 15.1- -4.0---
2024-03-03 11:06 am W 9.9 17.1----30.15- 15.1- -2.9---
2024-03-03 10:46 amNNW 14.0 14.0----30.14- 14.0- -2.9---
2024-03-03 10:26 am NW 13.0 19.0----30.14- 14.0- -2.0---
2024-03-03 10:06 amWNW 9.9 9.9----30.14- 15.1- -2.9---
2024-03-03 09:46 am N 6.0 12.0----30.15- 14.0- -2.9---
2024-03-03 09:26 amWNW 4.1 18.1----30.15- 14.0- -4.0---
2024-03-03 09:06 amNNW 8.0 17.1----30.14- 12.9- -2.0---
2024-03-03 08:46 amWNW 4.1 21.0----30.14- 12.9- -5.1---
2024-03-03 08:26 amNNW 15.9 17.1----30.12- 12.9- -4.0---
2024-03-03 08:06 am NW 14.0 17.1----30.12- 12.9- -4.0---
2024-03-03 07:46 am NW 15.9 20.0----30.11- 12.9- -4.0---
2024-03-03 07:26 am NW 17.1 19.0----30.11- 12.9- -2.9---
2024-03-03 07:06 am NW 20.0 20.0----30.09- 12.9- -2.0---
2024-03-03 06:46 amWNW 12.0 22.9----30.09- 12.9- -2.9---
2024-03-03 06:26 amNNE 13.0 19.0----30.09- 12.9- -2.9---
2024-03-03 06:06 amWNW 21.0 22.0----30.07- 12.9- -2.9---
2024-03-03 05:46 am W 4.1 8.9----30.09- 12.0- -4.0---
2024-03-03 05:26 am W 8.0 17.1----30.11- 12.0- -5.1---
2024-03-03 05:06 amNNW 13.0 15.9----30.09- 12.0- -2.9---
2024-03-03 04:46 amNNE 9.9 11.1----30.09- 12.0- -2.9---
2024-03-03 04:26 amNNW 8.0 14.0----30.09- 12.0- -4.0---
2024-03-03 04:06 amNNW 21.0 21.0----30.06- 12.0- -2.9---
2024-03-03 03:46 amNNW 22.9 22.9----30.04- 12.0- -2.9---
2024-03-03 03:26 amNNW 22.9 22.9----30.05- 12.0- -2.9---
2024-03-03 03:06 am N 9.9 18.1----30.06- 12.0- -4.0---
2024-03-03 02:46 amWNW 8.9 11.1----30.07- 12.0- -5.1---
2024-03-03 02:26 amWNW 7.0 22.0----30.06- 12.0- -4.0---
2024-03-03 02:06 amWNW 12.0 18.1----30.05- 12.0- -4.0---
2024-03-03 01:46 am NW 8.0 17.1----30.05- 12.0- -4.0---
2024-03-03 01:26 amNNE 13.0 20.0----30.04- 12.0- -2.0---
2024-03-03 01:06 am N 22.9 22.9----30.03- 12.0- -2.0---
2024-03-03 12:46 am N 19.0 19.0----30.03- 12.0- -2.9---
2024-03-03 12:26 am N 9.9 17.1----30.04- 12.0- -2.9---
2024-03-03 12:06 amWNW 9.9 19.0----30.04- 12.9- -2.9---
2024-03-02 11:46 pmNNW 13.0 15.9----30.04- 12.9- -2.0---
2024-03-02 11:26 pm NE 7.0 11.1----30.03- 12.9- -2.9---
2024-03-02 11:06 pm E 12.0 15.9----30.02- 12.9- -2.9---
2024-03-02 10:46 pmNNE 17.1 21.0----30.00- 14.0- -2.0---
2024-03-02 10:26 pmNNW 17.1 17.1----29.99- 14.0- -0.9---
2024-03-02 10:06 pm N 17.1 22.0----29.98- 14.0- -0.9---